Date String (YYYY-MM-DD hh:mm:ss) UTC,Instrument flags,absolute air pressure of the measurement (hPa),sample flow rate (lpm),inlet stack bypass flow (lpm),air temperature of the measurement (°C),ambient temperature measured by the external sensor (°C),aerosol sample conditioner tube jacket temperature (°C),OPC LED temperature (°C),internal box temperature (°C),relative humidity of the measurement (%),span deviation,mass concentration of particles derived from Lorenz-Mie calculation of OPC scattering (μg/m³),mass concentration of particles derived from Lorenz-Mie calculation of OPC scattering (μg/m³),mass concentration of particles derived from Lorenz-Mie calculation of OPC scattering (μg/m³)
DateTimeUTC,F1_M11,P_M11,Q1_M11,Q2_M11,T1_M11,T2_M11,T3_M11,T4_M11,T5_M11,U1_M11,ZSPAN_M11,X0_M11,X2_M11,X1_M11
2023-07-28 18:00:00,SystemResetWarning,0834.3,5.01,000.00,028.9,025.1,000.0,037.0,030.2,30.6,0000.0,0011.42,0004.58,0003.71
2023-07-28 18:01:00,SystemResetWarning,0834.5,5.00,000.00,028.8,025.4,000.0,037.0,030.1,30.5,0000.0,0011.56,0004.59,0003.71
2023-07-28 18:02:00,SystemResetWarning,0834.6,5.00,000.00,028.8,025.8,000.0,037.1,030.1,28.7,0000.0,0011.41,0004.62,0003.72
2023-07-28 18:03:00,SystemResetWarning,0834.3,5.00,000.00,028.8,026.2,000.0,037.1,030.2,28.6,0000.0,0010.85,0004.60,0003.73
2023-07-28 18:04:00,SystemResetWarning,0834.5,5.01,000.00,028.8,026.6,000.0,037.1,030.3,28.8,0000.0,0011.02,0004.58,0003.72
2023-07-28 18:05:00,SystemResetWarning,0834.5,5.00,000.00,028.8,027.0,000.0,037.2,030.4,29.6,0000.0,0011.26,0004.63,0003.72
2023-07-28 18:06:00,SystemResetWarning,0834.6,5.00,000.00,028.9,027.3,000.0,037.2,030.5,29.0,0000.0,0010.98,0004.61,0003.72
2023-07-28 18:07:00,SystemResetWarning,0834.5,4.99,000.00,028.9,027.4,000.0,037.2,030.6,28.0,0000.0,0011.27,0004.60,0003.71
2023-07-28 18:08:00,SystemResetWarning,0834.3,4.99,000.00,028.9,026.3,000.0,037.1,030.4,28.0,0000.0,0011.36,0004.59,0003.71
2023-07-28 18:09:00,SystemResetWarning,0834.2,5.01,000.00,028.9,025.2,000.0,037.0,030.3,28.0,0000.0,0011.34,0004.57,0003.70
2023-07-28 18:10:00,SystemResetWarning,0834.2,5.01,000.00,028.8,025.2,000.0,037.0,030.1,29.1,0000.0,0011.15,0004.50,0003.69
2023-07-28 18:11:00,SystemResetWarning,0834.2,5.00,000.00,028.7,025.6,000.0,037.0,030.1,29.6,0000.0,0010.84,0004.42,0003.67
2023-07-28 18:12:00,SystemResetWarning,0834.2,4.99,000.00,028.7,026.0,000.0,037.0,030.1,29.4,0000.0,0010.53,0004.39,0003.66
2023-07-28 18:13:00,SystemResetWarning,0834.2,4.99,000.00,028.8,026.4,000.0,037.1,030.2,29.8,0000.0,0010.48,0004.34,0003.65
2023-07-28 18:14:00,SystemResetWarning,0834.3,5.00,000.00,028.8,026.8,000.0,037.1,030.3,31.2,0000.0,0009.97,0004.31,0003.63
2023-07-28 18:15:00,SystemResetWarning,0834.3,5.01,000.00,028.8,027.2,000.0,037.1,030.4,31.0,0000.0,0009.72,0004.25,0003.60
2023-07-28 18:16:00,SystemResetWarning,0834.4,5.00,000.00,028.9,027.3,000.0,037.1,030.5,30.6,0000.0,0009.63,0004.22,0003.58
2023-07-28 18:17:00,SystemResetWarning,0834.3,4.98,000.00,028.9,026.3,000.0,037.0,030.4,30.5,0000.0,0009.52,0004.18,0003.56
2023-07-28 18:18:00,SystemResetWarning,0834.2,5.01,000.00,028.8,025.1,000.0,036.9,030.2,30.7,0000.0,0009.10,0004.16,0003.55
2023-07-28 18:19:00,SystemResetWarning,0834.2,5.01,000.00,028.8,025.2,000.0,036.9,030.1,30.0,0000.0,0008.63,0004.15,0003.53
2023-07-28 18:20:00,SystemResetWarning,0834.1,5.01,000.00,028.7,025.5,000.0,037.0,030.1,30.2,0000.0,0008.74,0004.15,0003.52
2023-07-28 18:21:00,SystemResetWarning,0834.1,4.98,000.00,028.7,026.0,000.0,037.0,030.1,29.7,0000.0,0008.64,0004.15,0003.53
2023-07-28 18:22:00,SystemResetWarning,0834.1,4.99,000.00,028.7,026.4,000.0,037.0,030.2,29.5,0000.0,0008.18,0004.16,0003.53
2023-07-28 18:23:00,SystemResetWarning,0834.1,5.00,000.00,028.7,026.8,000.0,037.1,030.3,29.5,0000.0,0008.11,0004.15,0003.52
2023-07-28 18:24:00,SystemResetWarning,0834.1,5.01,000.00,028.8,027.1,000.0,037.1,030.4,31.1,0000.0,0008.14,0004.13,0003.52
2023-07-28 18:25:00,SystemResetWarning,0834.1,5.00,000.00,028.8,026.9,000.0,037.0,030.5,31.2,0000.0,0008.65,0004.11,0003.51
2023-07-28 18:26:00,SystemResetWarning,0834.0,4.99,000.00,028.8,025.5,000.0,036.9,030.3,29.5,0000.0,0008.91,0004.15,0003.52
2023-07-28 18:27:00,SystemResetWarning,0834.0,5.01,000.00,028.7,024.9,000.0,036.9,030.2,29.3,0000.0,0009.17,0004.16,0003.52
2023-07-28 18:28:00,SystemResetWarning,0834.0,5.01,000.00,028.7,025.2,000.0,036.9,030.1,29.1,0000.0,0009.36,0004.12,0003.52
2023-07-28 18:29:00,SystemResetWarning,0834.0,5.00,000.00,028.6,025.6,000.0,036.9,030.0,28.9,0000.0,0009.85,0004.10,0003.51
2023-07-28 18:30:00,SystemResetWarning,0833.9,4.99,000.00,028.6,026.1,000.0,036.9,030.1,28.7,0000.0,0010.27,0004.13,0003.51
2023-07-28 18:31:00,SystemResetWarning,0833.9,4.99,000.00,028.7,026.5,000.0,037.0,030.2,29.2,0000.0,0010.15,0004.14,0003.52
2023-07-28 18:32:00,SystemResetWarning,0834.0,4.99,000.00,028.7,026.8,000.0,037.0,030.3,29.8,0000.0,0010.44,0004.16,0003.52
2023-07-28 18:33:00,SystemResetWarning,0834.0,5.00,000.00,028.7,027.2,000.0,037.0,030.4,30.4,0000.0,0011.06,0004.20,0003.51
2023-07-28 18:34:00,SystemResetWarning,0834.0,5.00,000.00,028.8,027.4,000.0,037.0,030.5,29.5,0000.0,0011.85,0004.18,0003.50
2023-07-28 18:35:00,SystemResetWarning,0834.0,4.99,000.00,028.8,026.5,000.0,037.0,030.4,29.4,0000.0,0011.73,0004.15,0003.50
2023-07-28 18:36:00,SystemResetWarning,0833.9,5.01,000.00,028.7,025.3,000.0,036.9,030.2,29.8,0000.0,0011.23,0004.16,0003.50
2023-07-28 18:37:00,SystemResetWarning,0833.9,5.01,000.00,028.7,025.2,000.0,036.8,030.1,30.2,0000.0,0010.82,0004.13,0003.49
2023-07-28 18:38:00,SystemResetWarning,0833.9,5.01,000.00,028.6,025.5,000.0,036.9,030.0,31.0,0000.0,0010.65,0004.11,0003.48
2023-07-28 18:39:00,SystemResetWarning,0833.9,4.99,000.00,028.6,025.9,000.0,036.9,030.1,30.6,0000.0,0011.17,0004.15,0003.50
2023-07-28 18:40:00,SystemResetWarning,0833.9,5.00,000.00,028.6,026.3,000.0,036.9,030.2,31.1,0000.0,0011.03,0004.18,0003.51
2023-07-28 18:41:00,SystemResetWarning,0833.8,4.99,000.00,028.7,026.7,000.0,037.0,030.3,31.7,0000.0,0010.81,0004.21,0003.51
2023-07-28 18:42:00,SystemResetWarning,0833.9,5.00,000.00,028.7,027.1,000.0,037.0,030.4,32.0,0000.0,0010.72,0004.17,0003.51
2023-07-28 18:43:00,SystemResetWarning,0833.9,5.00,000.00,028.7,027.0,000.0,037.0,030.4,30.8,0000.0,0010.41,0004.16,0003.51
2023-07-28 18:44:00,SystemResetWarning,0833.8,4.99,000.00,028.7,025.8,000.0,036.9,030.3,31.8,0000.0,0010.09,0004.12,0003.51
2023-07-28 18:45:00,SystemResetWarning,0833.9,5.01,000.00,028.7,025.1,000.0,036.8,030.1,32.3,0000.0,0009.58,0004.16,0003.52
2023-07-28 18:46:00,SystemResetWarning,0833.9,5.01,000.00,028.6,025.4,000.0,036.8,030.0,32.4,0000.0,0009.44,0004.17,0003.53
2023-07-28 18:47:00,SystemResetWarning,0833.9,4.99,000.00,028.6,025.7,000.0,036.9,030.0,32.2,0000.0,0009.62,0004.19,0003.53
2023-07-28 18:48:00,SystemResetWarning,0833.9,4.99,000.00,028.6,026.2,000.0,036.9,030.1,31.3,0000.0,0009.78,0004.23,0003.56
2023-07-28 18:49:00,SystemResetWarning,0833.9,5.01,000.00,028.6,026.6,000.0,036.9,030.2,30.9,0000.0,0009.86,0004.26,0003.58
2023-07-28 18:50:00,SystemResetWarning,0833.9,5.01,000.00,028.7,026.9,000.0,037.0,030.3,30.7,0000.0,0009.29,0004.27,0003.59
2023-07-28 18:51:00,SystemResetWarning,0833.9,5.00,000.00,028.7,027.2,000.0,037.0,030.4,30.3,0000.0,0009.33,0004.33,0003.59
2023-07-28 18:52:00,SystemResetWarning,0833.9,4.98,000.00,028.7,026.5,000.0,036.9,030.4,30.7,0000.0,0009.55,0004.32,0003.61
2023-07-28 18:53:00,SystemResetWarning,0833.9,5.01,000.00,028.7,025.3,000.0,036.8,030.1,30.1,0000.0,0009.75,0004.35,0003.62
2023-07-28 18:54:00,SystemResetWarning,0833.9,5.01,000.00,028.6,025.2,000.0,036.8,030.1,29.9,0000.0,0010.05,0004.39,0003.62
2023-07-28 18:55:00,SystemResetWarning,0833.9,5.01,000.00,028.6,025.5,000.0,036.8,030.0,29.5,0000.0,0010.06,0004.42,0003.64
2023-07-28 18:56:00,SystemResetWarning,0834.0,5.00,000.00,028.6,025.9,000.0,036.9,030.0,30.3,0000.0,0010.02,0004.43,0003.65
2023-07-28 18:57:00,SystemResetWarning,0833.9,5.00,000.00,028.6,026.3,000.0,036.9,030.2,30.4,0000.0,0010.13,0004.44,0003.65
2023-07-28 18:58:00,SystemResetWarning,0833.9,5.00,000.00,028.6,026.7,000.0,036.9,030.3,29.9,0000.0,0010.00,0004.44,0003.66
2023-07-28 18:59:00,SystemResetWarning,0834.0,4.99,000.00,028.7,027.1,000.0,036.9,030.4,30.7,0000.0,0009.93,0004.46,0003.65
